YMA7562 UAAA-UZTT

Flight info

Callsign YMA7562
Flight time 1h 9m
Altitude 32000
Route UAAA EKLAT AGLEK TAR KOLAM BAMUT UZTT
Aircraft B738/M-VGDW/C

Departure

Time 2026-05-05 09:17
Airport Almaty International Airport (UAAA)

Arrival

Time 2026-05-05 10:27
Airport Tashkent International Airport (UZTT)
Time Latitude Longitude Altitude Speed Heading
2026-05-05 08:56 43.34636 77.01331 2237 ft 0 kts 275°
2026-05-05 09:05 43.34634 77.01358 2237 ft 3 kts 275°
2026-05-05 09:05 43.34632 77.01382 2237 ft 2 kts 280°
2026-05-05 09:06 43.34629 77.01398 2236 ft 2 kts 296°
2026-05-05 09:06 43.34624 77.01409 2236 ft 1 kts 313°
2026-05-05 09:06 43.34617 77.01417 2236 ft 1 kts 328°
2026-05-05 09:06 43.34610 77.01422 2237 ft 1 kts 344°
2026-05-05 09:07 43.34602 77.01424 2237 ft 1 kts 359°
2026-05-05 09:07 43.34594 77.01424 2237 ft 0 kts
2026-05-05 09:07 43.34597 77.01424 2237 ft 1 kts
2026-05-05 09:07 43.34613 77.01427 2237 ft 3 kts
2026-05-05 09:08 43.34644 77.01434 2235 ft 5 kts
2026-05-05 09:08 43.34661 77.01437 2235 ft 0 kts 11°
2026-05-05 09:11 43.34707 77.01451 2233 ft 12 kts 41°
2026-05-05 09:12 43.34680 77.01505 2233 ft 2 kts 198°
2026-05-05 09:12 43.34675 77.01502 2233 ft 2 kts 208°
2026-05-05 09:12 43.34642 77.01475 2235 ft 8 kts 204°
2026-05-05 09:12 43.34590 77.01466 2237 ft 0 kts 174°
2026-05-05 09:13 43.34567 77.01476 2238 ft 11 kts 158°
2026-05-05 09:13 43.34524 77.01503 2239 ft 0 kts 153°
2026-05-05 09:13 43.34467 77.01539 2240 ft 16 kts 156°
2026-05-05 09:14 43.34367 77.01601 2241 ft 14 kts 155°
2026-05-05 09:14 43.34278 77.01659 2242 ft 13 kts 154°
2026-05-05 09:14 43.34248 77.01679 2242 ft 0 kts 154°
2026-05-05 09:14 43.34227 77.01692 2243 ft 12 kts 155°
2026-05-05 09:15 43.34156 77.01770 2244 ft 2 kts 98°
2026-05-05 09:15 43.34183 77.01866 2244 ft 10 kts 56°
2026-05-05 09:15 43.34189 77.01878 2244 ft 0 kts 56°
2026-05-05 09:15 43.34189 77.01879 2244 ft 0 kts 57°
2026-05-05 09:16 43.34190 77.01880 2244 ft 1 kts 57°
2026-05-05 09:17 43.34320 77.02140 2244 ft 73 kts 55°
2026-05-05 09:17 43.34757 77.03027 2241 ft 149 kts 55°
2026-05-05 09:17 43.35412 77.04349 2693 ft 171 kts 55°
2026-05-05 09:17 43.36105 77.05773 3224 ft 196 kts 56°
2026-05-05 09:18 43.36910 77.07456 3768 ft 219 kts 56°
2026-05-05 09:18 43.37744 77.09219 4206 ft 222 kts 56°
2026-05-05 09:18 43.38582 77.10986 4673 ft 220 kts 56°
2026-05-05 09:18 43.39426 77.12742 5145 ft 221 kts 56°
2026-05-05 09:19 43.40304 77.14443 5610 ft 221 kts 41°
2026-05-05 09:19 43.41642 77.15488 6144 ft 223 kts 13°
2026-05-05 09:19 43.43186 77.15611 6653 ft 226 kts 355°
2026-05-05 09:19 43.44743 77.15250 7119 ft 228 kts 344°
2026-05-05 09:20 43.46263 77.14548 7601 ft 230 kts 341°
2026-05-05 09:20 43.47767 77.13783 8087 ft 232 kts 339°
2026-05-05 09:20 43.49266 77.12968 8537 ft 234 kts 339°
2026-05-05 09:20 43.50798 77.12118 9010 ft 236 kts 333°
2026-05-05 09:21 43.52064 77.10682 9547 ft 241 kts 306°
2026-05-05 09:21 43.52911 77.08672 10041 ft 246 kts 298°
2026-05-05 09:21 43.53708 77.06567 10498 ft 248 kts 296°
2026-05-05 09:21 43.54139 77.04279 11017 ft 251 kts 274°
2026-05-05 09:22 43.54278 77.01859 11561 ft 255 kts 274°
2026-05-05 09:22 43.54420 76.99425 12040 ft 258 kts 274°
2026-05-05 09:22 43.54544 76.96940 12543 ft 259 kts 265°
2026-05-05 09:22 43.54098 76.94559 13106 ft 259 kts 238°
2026-05-05 09:23 43.53117 76.92486 13626 ft 263 kts 236°
2026-05-05 09:23 43.52114 76.90280 14134 ft 276 kts 236°
2026-05-05 09:23 43.51063 76.87990 14620 ft 294 kts 236°
2026-05-05 09:23 43.49931 76.85549 15112 ft 312 kts 236°
2026-05-05 09:24 43.48724 76.82966 15563 ft 331 kts 236°
2026-05-05 09:24 43.47447 76.80238 16025 ft 349 kts 236°
2026-05-05 09:24 43.46064 76.77374 16489 ft 367 kts 235°
2026-05-05 09:24 43.44608 76.74384 16942 ft 384 kts 235°
2026-05-05 09:25 43.43073 76.71275 17391 ft 397 kts 234°
2026-05-05 09:25 43.41495 76.68167 17801 ft 398 kts 234°
2026-05-05 09:25 43.39922 76.65073 18187 ft 397 kts 234°
2026-05-05 09:25 43.38321 76.61940 18618 ft 397 kts 234°
2026-05-05 09:26 43.36730 76.58838 19046 ft 400 kts 234°
2026-05-05 09:26 43.35113 76.55708 19489 ft 401 kts 234°
2026-05-05 09:26 43.33508 76.52615 19971 ft 403 kts 234°
2026-05-05 09:26 43.31851 76.49435 20468 ft 406 kts 234°
2026-05-05 09:27 43.30202 76.46288 20943 ft 409 kts 234°
2026-05-05 09:27 43.28532 76.43115 21434 ft 411 kts 234°
2026-05-05 09:27 43.26870 76.39972 21923 ft 413 kts 234°
2026-05-05 09:27 43.25160 76.36747 22430 ft 415 kts 234°
2026-05-05 09:28 43.23681 76.33340 22918 ft 416 kts 248°
2026-05-05 09:28 43.22908 76.29517 23453 ft 417 kts 263°
2026-05-05 09:28 43.22846 76.25575 23978 ft 417 kts 277°
2026-05-05 09:28 43.23204 76.21636 24503 ft 421 kts 278°
2026-05-05 09:29 43.23579 76.17675 25000 ft 423 kts 278°
2026-05-05 09:29 43.23964 76.13640 25491 ft 425 kts 278°
2026-05-05 09:29 43.24398 76.09664 25972 ft 426 kts 283°
2026-05-05 09:29 43.25242 76.05722 26483 ft 428 kts 289°
2026-05-05 09:30 43.26192 76.01905 26969 ft 431 kts 289°
2026-05-05 09:30 43.27175 75.97982 27464 ft 435 kts 289°
2026-05-05 09:30 43.28155 75.94074 27952 ft 438 kts 289°
2026-05-05 09:30 43.29150 75.90125 28442 ft 440 kts 289°
2026-05-05 09:31 43.30162 75.86134 28937 ft 443 kts 289°
2026-05-05 09:31 43.31181 75.82135 29435 ft 445 kts 289°
2026-05-05 09:31 43.32203 75.78148 29929 ft 449 kts 289°
2026-05-05 09:31 43.33194 75.74055 30419 ft 452 kts 288°
2026-05-05 09:32 43.34108 75.69937 30915 ft 456 kts 287°
2026-05-05 09:32 43.35014 75.65756 31413 ft 459 kts 287°
2026-05-05 09:32 43.35929 75.61546 31905 ft 461 kts 287°
2026-05-05 09:32 43.36794 75.57348 32146 ft 464 kts 286°
2026-05-05 09:33 43.37665 75.53108 32133 ft 461 kts 286°
2026-05-05 09:33 43.39294 75.44630 32140 ft 458 kts 285°
2026-05-05 09:34 43.40929 75.36188 32137 ft 459 kts 285°
2026-05-05 09:34 43.42572 75.27717 32142 ft 460 kts 284°
2026-05-05 09:35 43.44222 75.19267 32127 ft 460 kts 284°
2026-05-05 09:35 43.46751 75.06405 32116 ft 468 kts 284°
2026-05-05 09:36 43.48445 74.97808 32102 ft 467 kts 284°
2026-05-05 09:36 43.48931 74.93426 32085 ft 465 kts 271°
2026-05-05 09:36 43.48681 74.88993 32122 ft 465 kts 259°
2026-05-05 09:37 43.47322 74.80327 32125 ft 466 kts 259°
2026-05-05 09:37 43.46276 74.71572 32126 ft 466 kts 261°
2026-05-05 09:38 43.45256 74.62800 32114 ft 467 kts 261°
2026-05-05 09:38 43.44227 74.53999 32108 ft 468 kts 261°
2026-05-05 09:39 43.43199 74.45205 32107 ft 468 kts 261°
2026-05-05 09:39 43.42170 74.36384 32093 ft 468 kts 261°
2026-05-05 09:40 43.41143 74.27620 32086 ft 468 kts 261°
2026-05-05 09:40 43.40095 74.18778 32075 ft 471 kts 261°
2026-05-05 09:41 43.38994 74.09956 32069 ft 471 kts 258°
2026-05-05 09:41 43.37694 74.01187 32064 ft 470 kts 258°
2026-05-05 09:42 43.36263 73.92415 32058 ft 472 kts 257°
2026-05-05 09:42 43.34772 73.83671 32058 ft 472 kts 257°
2026-05-05 09:43 43.33277 73.74932 32057 ft 473 kts 257°
2026-05-05 09:43 43.31810 73.66129 32058 ft 472 kts 257°
2026-05-05 09:44 43.30363 73.57431 32059 ft 470 kts 257°
2026-05-05 09:44 43.28917 73.48764 32061 ft 467 kts 257°
2026-05-05 09:45 43.27450 73.40047 32063 ft 469 kts 257°
2026-05-05 09:45 43.26002 73.31400 32066 ft 468 kts 257°
2026-05-05 09:46 43.24555 73.22753 32066 ft 468 kts 257°
2026-05-05 09:46 43.23096 73.14036 32067 ft 468 kts 256°
2026-05-05 09:47 43.21540 73.05434 32069 ft 467 kts 256°
2026-05-05 09:47 43.19974 72.96831 32066 ft 467 kts 256°
2026-05-05 09:48 43.18402 72.88233 32071 ft 466 kts 256°
2026-05-05 09:48 43.16838 72.79697 32064 ft 465 kts 256°
2026-05-05 09:49 43.15271 72.71151 32063 ft 465 kts 256°
2026-05-05 09:49 43.13671 72.62560 32065 ft 466 kts 256°
2026-05-05 09:50 43.12067 72.54013 32075 ft 465 kts 256°
2026-05-05 09:50 43.10463 72.45519 32072 ft 466 kts 256°
2026-05-05 09:51 43.08826 72.36977 32075 ft 466 kts 256°
2026-05-05 09:51 43.07185 72.28413 32071 ft 467 kts 256°
2026-05-05 09:52 43.05532 72.19839 32077 ft 467 kts 256°
2026-05-05 09:52 43.03874 72.11317 32076 ft 467 kts 256°
2026-05-05 09:53 43.02196 72.02747 32078 ft 468 kts 256°
2026-05-05 09:53 43.00525 71.94199 32086 ft 468 kts 256°
2026-05-05 09:54 42.98843 71.85641 32093 ft 467 kts 256°
2026-05-05 09:54 42.97169 71.77125 32080 ft 467 kts 256°
2026-05-05 09:55 42.95489 71.68615 32102 ft 467 kts 256°
2026-05-05 09:55 42.93801 71.60075 32073 ft 467 kts 256°
2026-05-05 09:56 42.92106 71.51549 32072 ft 466 kts 256°
2026-05-05 09:56 42.90362 71.43105 32078 ft 467 kts 254°
2026-05-05 09:57 42.88430 71.34639 32077 ft 467 kts 253°
2026-05-05 09:57 42.86499 71.26222 32088 ft 467 kts 254°
2026-05-05 09:58 42.84552 71.17808 32092 ft 468 kts 254°
2026-05-05 09:58 42.82597 71.09410 32095 ft 468 kts 254°
2026-05-05 09:59 42.80626 71.00980 32108 ft 468 kts 254°
2026-05-05 09:59 42.78655 70.92616 32141 ft 468 kts 254°
2026-05-05 10:00 42.76677 70.84196 32143 ft 467 kts 254°
2026-05-05 10:00 42.74722 70.75828 32170 ft 467 kts 254°
2026-05-05 10:01 42.72516 70.67526 32174 ft 468 kts 245°
2026-05-05 10:01 42.69048 70.60045 32195 ft 470 kts 238°
2026-05-05 10:02 42.65424 70.52679 32201 ft 469 kts 238°
2026-05-05 10:02 42.61255 70.45955 32219 ft 471 kts 226°
2026-05-05 10:03 42.56597 70.39684 32198 ft 472 kts 227°
2026-05-05 10:03 42.51986 70.33358 32169 ft 471 kts 227°
2026-05-05 10:04 42.47394 70.27077 32168 ft 471 kts 227°
2026-05-05 10:04 42.42796 70.20793 32180 ft 471 kts 227°
2026-05-05 10:05 42.38250 70.14600 31915 ft 458 kts 227°
2026-05-05 10:05 42.35999 70.11539 30232 ft 472 kts 227°
2026-05-05 10:05 42.33658 70.08341 28189 ft 487 kts 227°
2026-05-05 10:06 42.31286 70.05098 27006 ft 482 kts 227°
2026-05-05 10:06 42.28986 70.01940 25842 ft 479 kts 227°
2026-05-05 10:06 42.26658 69.98736 23907 ft 490 kts 227°
2026-05-05 10:06 42.24278 69.95467 22780 ft 479 kts 227°
2026-05-05 10:07 42.22030 69.92384 22601 ft 452 kts 227°
2026-05-05 10:07 42.19828 69.89361 20773 ft 458 kts 227°
2026-05-05 10:07 42.17612 69.86297 19380 ft 455 kts 227°
2026-05-05 10:07 42.15489 69.83361 19505 ft 421 kts 227°
2026-05-05 10:08 42.13505 69.80628 19479 ft 396 kts 227°
2026-05-05 10:08 42.11602 69.78025 19179 ft 380 kts 227°
2026-05-05 10:08 42.09757 69.75509 18136 ft 386 kts 227°
2026-05-05 10:08 42.07898 69.72971 17518 ft 378 kts 227°
2026-05-05 10:09 42.06057 69.70462 17005 ft 369 kts 227°
2026-05-05 10:09 42.04269 69.68009 16159 ft 370 kts 227°
2026-05-05 10:09 42.02481 69.65541 15604 ft 363 kts 227°
2026-05-05 10:09 42.00738 69.63135 14951 ft 360 kts 227°
2026-05-05 10:10 41.99004 69.60738 14289 ft 356 kts 227°
2026-05-05 10:10 41.97297 69.58356 13662 ft 352 kts 227°
2026-05-05 10:10 41.95618 69.55993 13023 ft 348 kts 227°
2026-05-05 10:10 41.93948 69.53628 12338 ft 346 kts 227°
2026-05-05 10:11 41.92309 69.51288 11670 ft 344 kts 227°
2026-05-05 10:11 41.90709 69.48990 11455 ft 327 kts 227°
2026-05-05 10:11 41.89201 69.46825 11379 ft 303 kts 227°
2026-05-05 10:11 41.87820 69.44848 11347 ft 284 kts 227°
2026-05-05 10:12 41.86358 69.43040 10813 ft 287 kts 213°
2026-05-05 10:12 41.84488 69.42001 10237 ft 290 kts 191°
2026-05-05 10:12 41.82523 69.41948 9992 ft 283 kts 172°
2026-05-05 10:12 41.80582 69.42593 9493 ft 286 kts 166°
2026-05-05 10:13 41.78675 69.43282 9072 ft 284 kts 166°
2026-05-05 10:13 41.76775 69.43962 8702 ft 281 kts 166°
2026-05-05 10:13 41.74870 69.44653 8256 ft 282 kts 163°
2026-05-05 10:13 41.73014 69.45499 7842 ft 281 kts 162°
2026-05-05 10:14 41.71176 69.46353 7466 ft 279 kts 162°
2026-05-05 10:14 41.69325 69.47214 7072 ft 278 kts 162°
2026-05-05 10:14 41.67522 69.48051 6930 ft 265 kts 162°
2026-05-05 10:14 41.65844 69.48838 6887 ft 247 kts 162°
2026-05-05 10:15 41.64219 69.49598 6286 ft 255 kts 162°
2026-05-05 10:15 41.62513 69.50388 5829 ft 254 kts 162°
2026-05-05 10:15 41.60914 69.51325 5504 ft 250 kts 155°
2026-05-05 10:15 41.59361 69.52339 5050 ft 249 kts 155°
2026-05-05 10:16 41.57796 69.53361 4521 ft 250 kts 155°
2026-05-05 10:16 41.56226 69.54392 4163 ft 253 kts 155°
2026-05-05 10:16 41.54661 69.55418 4125 ft 251 kts 155°
2026-05-05 10:16 41.53106 69.56442 4121 ft 248 kts 155°
2026-05-05 10:17 41.51559 69.57462 4116 ft 242 kts 155°
2026-05-05 10:17 41.50118 69.58410 4101 ft 221 kts 155°
2026-05-05 10:17 41.48794 69.59280 4122 ft 201 kts 155°
2026-05-05 10:17 41.47541 69.60104 4141 ft 205 kts 155°
2026-05-05 10:18 41.46256 69.60947 4133 ft 207 kts 155°
2026-05-05 10:18 41.44958 69.61800 4129 ft 207 kts 155°
2026-05-05 10:18 41.43661 69.62654 4134 ft 207 kts 155°
2026-05-05 10:18 41.42426 69.63467 4131 ft 189 kts 155°
2026-05-05 10:19 41.41262 69.64235 4137 ft 188 kts 155°
2026-05-05 10:19 41.40077 69.65013 4143 ft 190 kts 155°
2026-05-05 10:19 41.38880 69.65798 4139 ft 191 kts 155°
2026-05-05 10:19 41.37686 69.66527 4119 ft 190 kts 165°
2026-05-05 10:20 41.36378 69.66531 4137 ft 187 kts 193°
2026-05-05 10:20 41.35100 69.66155 4131 ft 188 kts 194°
2026-05-05 10:20 41.33819 69.65775 4127 ft 187 kts 194°
2026-05-05 10:20 41.32561 69.65364 4118 ft 187 kts 198°
2026-05-05 10:21 41.31439 69.64529 4116 ft 185 kts 221°
2026-05-05 10:21 41.30449 69.63393 4110 ft 187 kts 222°
2026-05-05 10:21 41.29740 69.61974 4097 ft 185 kts 253°
2026-05-05 10:21 41.29518 69.60294 4114 ft 186 kts 262°
2026-05-05 10:22 41.29327 69.58598 4100 ft 186 kts 262°
2026-05-05 10:22 41.29137 69.56901 4098 ft 186 kts 262°
2026-05-05 10:22 41.28951 69.55215 4091 ft 185 kts 262°
2026-05-05 10:22 41.28759 69.53512 4091 ft 185 kts 262°
2026-05-05 10:23 41.28568 69.51828 4093 ft 186 kts 262°
2026-05-05 10:23 41.28382 69.50138 4077 ft 185 kts 262°
2026-05-05 10:23 41.28195 69.48440 4069 ft 185 kts 262°
2026-05-05 10:23 41.27988 69.46744 4064 ft 185 kts 261°
2026-05-05 10:24 41.27786 69.45122 4063 ft 169 kts 261°
2026-05-05 10:24 41.27602 69.43574 4037 ft 170 kts 262°
2026-05-05 10:24 41.27426 69.42024 3941 ft 171 kts 261°
2026-05-05 10:24 41.27240 69.40456 3721 ft 174 kts 262°
2026-05-05 10:25 41.27054 69.38880 3458 ft 171 kts 262°
2026-05-05 10:25 41.26852 69.37349 3184 ft 168 kts 259°
2026-05-05 10:25 41.26664 69.35825 2805 ft 164 kts 262°
2026-05-05 10:25 41.26505 69.34349 2487 ft 163 kts 263°
2026-05-05 10:26 41.26347 69.32869 2139 ft 159 kts 260°
2026-05-05 10:26 41.26210 69.31428 1762 ft 156 kts 262°
2026-05-05 10:26 41.26065 69.30036 1446 ft 146 kts 260°
2026-05-05 10:26 41.25934 69.28899 1422 ft 92 kts 261°
2026-05-05 10:27 41.25860 69.28227 1422 ft 69 kts 262°
2026-05-05 10:27 41.25800 69.27696 1422 ft 35 kts 261°
2026-05-05 10:27 41.25890 69.27438 1422 ft 30 kts 320°
2026-05-05 10:27 41.26017 69.27299 1422 ft 15 kts 321°
2026-05-05 10:28 41.26099 69.27206 1422 ft 16 kts 316°
2026-05-05 10:28 41.26108 69.27071 1422 ft 17 kts 245°
2026-05-05 10:28 41.26059 69.26918 1421 ft 18 kts 248°
2026-05-05 10:28 41.26060 69.26833 1421 ft 9 kts 334°
2026-05-05 10:29 41.26110 69.26794 1421 ft 7 kts 327°
2026-05-05 10:29 41.26138 69.26769 1421 ft 0 kts 327°